Home > Weather > Dubai > Past weeks

Flag for United Arab Emirates Weather for the Past 2 Weeks in Dubai, Dubai, United Arab Emirates

Now
68 °F

Passing clouds.


Feels Like: 68 °F
Forecast: 67 / 72 °F
Wind: 5 mph from South

Location: Dubai International Airport

Current Time: Feb 11, 2016 at 11:06:05 AM

Latest Report: Feb 11, 2016 at 10:00 AM


Visibility: N/A

Pressure: 30.04 "Hg

Humidity: 64%

Dew point: 55 °F

Location of DubaiLocation

Historic Weather in Dubai — Graph

°F

Dubai Temperature Yesterday

Maximum temperature yesterday: 73 °F (at 1:00 PM)
Minimum temperature yesterday: 61 °F (at 6:00 AM)
Average temperature yesterday: 67 °F

High & Low Weather Summary for the Past Weeks

 TemperatureHumidityPressure
High81 °F (Feb 8, 2:00 PM)77% (Feb 3, 5:00 AM)30.27 "Hg (Feb 3, 5:00 AM)
Low57 °F (Jan 31, 7:00 AM)12% (Feb 8, 2:00 PM)29.92 "Hg (Jan 27, 3:00 PM)
Average68 °F52%30.10 "Hg
* Reported Jan 27 10:00 AM — Feb 11 10:00 AM, Dubai, Weather by CustomWeather, © 2016

Note: Actual official high and low records may vary slightly from our data, if they occured in-between our weather recording intervals... More about our weather records

Advertising

Dubai Weather History for the Previous 24 Hours

 ConditionsComfort  
Time TempWeatherWind HumidityBarometerVisibility
10:00 AM
Thu, Feb 11
68 °FPassing clouds.5 mph64%30.04 "HgN/A
9:00 AM63 °FPassing clouds.6 mph73%30.04 "HgN/A
8:00 AM61 °FPassing clouds.6 mph72%30.01 "HgN/A
7:00 AM61 °FSunny.5 mph72%30.01 "Hg10 mi
6:00 AM63 °FClear.3 mph68%30.01 "Hg10 mi
5:00 AM66 °FPassing clouds.3 mph73%29.98 "HgN/A
4:00 AM68 °FClear.5 mph64%29.98 "Hg10 mi
3:00 AM66 °FClear.1 mph68%29.98 "Hg10 mi
2:00 AM66 °FClear.2 mph64%30.01 "Hg10 mi
1:00 AM68 °FPassing clouds.3 mph64%30.01 "HgN/A
12:00 AM68 °FClear.2 mph64%30.01 "Hg10 mi
11:00 PM
Wed, Feb 10
68 °FPassing clouds.3 mph60%30.01 "HgN/A
10:00 PM68 °FPassing clouds.3 mph60%30.04 "HgN/A
9:00 PM68 °FPassing clouds.5 mph60%30.04 "HgN/A
8:00 PM68 °FPassing clouds.6 mph56%30.04 "HgN/A
7:00 PM68 °FPassing clouds.8 mph60%30.04 "HgN/A
6:00 PM70 °FPassing clouds.9 mph53%30.01 "HgN/A
5:00 PM70 °FPassing clouds.9 mph53%30.01 "HgN/A
4:00 PM70 °FPassing clouds.12 mph53%30.01 "HgN/A
3:00 PM72 °FSunny.12 mph50%30.01 "Hg10 mi
2:00 PM72 °FPassing clouds.10 mph47%30.04 "HgN/A
1:00 PM73 °FSunny.6 mph44%30.07 "Hg10 mi
12:00 PM72 °FPassing clouds.5 mph47%30.09 "HgN/A
11:00 AM70 °FPassing clouds.6 mph50%30.12 "HgN/A
Weather by CustomWeather, © 2016

See weather overviewHow to use our weather pages